Flag for U.S.A. Weather past 2 weeks in Owensboro, Kentucky, U.S.A.

Now
72 °F

Sunny.


Feels Like: 71 °F
Forecast: 69 / 82 °F
Wind: 10 mph from South

Location: Owensboro / Daviess

Current Time: May 30, 2015 at 8:04:26 AM

Latest Report: May 30, 2015 at 6:56 AM


Visibility: 10 mi

Pressure: 30.02 "Hg

Humidity: 84%

Dew point: 67 °F

Location of OwensboroLocation

Historic Weather in Owensboro — Graph

°F

Owensboro temperature yesterday

Maximum temperature yesterday: 83 °F (at 5:56 PM)
Minimum temperature yesterday: 68 °F (at 4:56 AM)
Average temperature yesterday: 75 °F

Past Weeks' High & Low Weather Summary

 TemperatureHumidityPressure
High88 °F (May 15, 2:56 PM)100% (May 17, 11:56 PM)30.37 "Hg (May 17, 11:56 PM)
Low44 °F (May 22, 5:56 AM)34% (May 23, 2:56 PM)29.96 "Hg (May 26, 4:56 PM)
Average69 °F78%30.12 "Hg
* Reported May 15 6:56 AM — May 30 6:56 AM, Owensboro, Weather by CustomWeather, © 2015

Note: Actual official high and low records may vary slightly from our data, if they occured in-between our weather recording intervals... More about our weather records

Advertising

Owensboro weather history for previous 24 hours

 ConditionsComfort  
Time TempWeatherWind HumidityBarometerVisibility
6:56 AM
Sat, May 30
72 °FSunny.10 mph84%30.02 "Hg10 mi
5:56 AM70 °FSunny.8 mph90%30.02 "Hg10 mi
4:56 AM69 °FPassing clouds.6 mph93%30.02 "Hg10 mi
3:56 AM69 °FClear.6 mph93%30.02 "Hg10 mi
2:56 AM70 °FClear.6 mph93%30.02 "Hg10 mi
1:56 AM70 °FClear.5 mph93%30.03 "Hg10 mi
12:56 AM71 °FClear.6 mph93%30.03 "Hg10 mi
11:56 PM
Fri, May 29
73 °FClear.8 mph87%30.04 "Hg10 mi
10:56 PM73 °FClear.7 mph91%30.05 "Hg10 mi
9:56 PM74 °FClear.7 mph84%30.05 "Hg10 mi
8:56 PM76 °FClear.5 mph79%30.03 "Hg10 mi
7:56 PM78 °FPassing clouds.6 mph77%30.02 "Hg10 mi
6:56 PM81 °FPassing clouds.8 mph69%30.01 "Hg10 mi
5:56 PM83 °FPassing clouds.12 mph63%30.01 "Hg10 mi
4:56 PM82 °FPartly sunny.10 mph65%30.03 "Hg10 mi
3:56 PM82 °FScattered clouds.10 mph65%30.03 "Hg10 mi
2:56 PM81 °FPartly sunny.9 mph69%30.05 "Hg10 mi
1:56 PM73 °FFog.5 mph93%30.09 "Hg7 mi
12:56 PM80 °FPartly sunny.14 mph67%30.11 "Hg10 mi
11:56 AM78 °FPartly sunny.7 mph74%30.12 "Hg10 mi
10:56 AM78 °FPartly sunny.14 mph74%30.13 "Hg10 mi
9:56 AM75 °FBroken clouds.12 mph79%30.14 "Hg10 mi
8:56 AM72 °FOvercast.15 mph87%30.14 "Hg10 mi
Weather by CustomWeather, © 2015

See weather overviewHow to use our weather pages